This demonstration page uses our WeatherBlox Daily Observations layout. Learn more.

Left ArrowRight Arrow

36.19886, -115.1175

Hourly Observations for June 19, 2021

Temp ( °F °C ) Dew Point ( °F °C ) Humidity (%) Winds ( mph kmh ) Pressure ( in mb ) Visibility ( mi km ) Precip ( " mm )
12:53 am 00:53 Clear 98 36.7 36 2.2 11 11 NW 14 22 29.60 1002 10 16 N/A
1:53 am 01:53 Clear 98 36.7 36 2.2 11 11 NW 14 22 29.60 1002 10 16 N/A
2:53 am 02:53 Clear 96 35.6 36 2.2 12 12 N 9 15 29.61 1003 10 16 N/A
3:53 am 03:53 Clear 94 34.4 36 2.2 13 13 NNE 10 17 29.62 1003 10 16 N/A
4:53 am 04:53 Clear 96 35.6 36 2.2 12 12 NNW 13 20 29.62 1003 10 16 N/A
5:53 am 05:53 Sunny 94 34.4 36 2.2 13 13 NW 13 20 29.65 1004 10 16 N/A
6:53 am 06:53 Mostly Sunny 95 35 37 2.8 13 13 NNW 13 20 29.65 1004 10 16 N/A
7:53 am 07:53 Sunny 99 37.2 39 3.9 12 12 W 10 17 29.66 1004 10 16 N/A
8:53 am 08:53 Sunny 102 38.9 39 3.9 11 11 N 10 17 29.66 1004 10 16 N/A
9:53 am 09:53 Sunny 107 41.7 39 3.9 10 10 NNE 6 9 29.65 1004 10 16 N/A
10:53 am 10:53 Sunny 106 41.1 37 2.8 9 9 SE 6 9 29.65 1004 10 16 N/A
11:53 am 11:53 Sunny 109 42.8 38 3.3 9 9 SSE 7 11 29.63 1003 10 16 N/A
12:53 pm 12:53 Sunny 111 43.9 38 3.3 8 8 undefined N/A 29.60 1002 10 16 N/A
1:53 pm 13:53 Sunny 112 44.4 37 2.8 8 8 VRB 3 6 29.58 1002 10 16 N/A
2:53 pm 14:53 Sunny 113 45 37 2.8 7 7 W 6 9 29.55 1001 10 16 N/A
3:53 pm 15:53 Sunny 112 44.4 37 2.8 8 8 NNW 7 11 29.54 1000 10 16 N/A
4:53 pm 16:53 Sunny 113 45 35 1.7 7 7 NNW 8 13 29.53 1000 10 16 N/A
5:53 pm 17:53 Sunny 111 43.9 35 1.7 7 7 VRB 5 7 29.52 1000 10 16 N/A
6:53 pm 18:53 Sunny 112 44.4 35 1.7 7 7 W 3 6 29.52 1000 10 16 N/A
7:53 pm 19:53 Sunny 110 43.3 35 1.7 8 8 WSW 9 15 29.52 1000 10 16 N/A
8:53 pm 20:53 Clear 107 41.7 35 1.7 8 8 W 8 13 29.53 1000 10 16 N/A
9:53 pm 21:53 Clear 105 40.6 37 2.8 10 10 W 7 11 29.54 1001 10 16 N/A
10:53 pm 22:53 Clear 101 38.3 37 2.8 11 11 NNW 6 9 29.55 1001 10 16 N/A
11:53 pm 23:53 Clear 99 37.2 37 2.8 12 12 N N/A 29.56 1001 10 16 N/A

Powered by AerisWeather